DB0WT-13 Weather Reports


time (UTC)temp
C
wind
direction
speed
KPH
gust
KPH
rain 1hr
cm
rain 24hr
cm
rain mn
cm
humidity
%
barometer
mb
20260902093011 22 0.0 0.0 0.00 0.00 0.00 99 1023.2
20260902091512 21 0.0 0.0 0.00 0.00 0.00 99 1023.3
20260902090012 19 0.0 0.0 0.00 0.00 0.00 99 1023.5
20260902084512 17 0.0 0.0 0.00 0.00 0.00 99 1023.5
20260902083012 19 0.0 0.0 0.00 0.00 0.00 99 1023.4
20260902081512 23 0.0 0.0 0.00 0.00 0.00 64 1023.0
20260902080011 26 0.0 0.0 0.00 0.00 0.00 56 1022.8
20260902074512 28 0.0 0.0 0.00 0.00 0.00 53 1022.6
20260902073013 23 0.0 0.0 0.00 0.00 0.00 99 1022.9
20260902071512 17 0.0 0.0 0.00 0.00 0.00 99 1023.2
20260902070012 21 0.0 0.0 0.00 0.00 0.00 99 1023.0
20260902064512 18 0.0 0.0 0.00 0.00 0.00 99 1022.9
20260902063012 20 0.0 0.0 0.00 0.00 0.00 96 1023.1
20260902061512 25 0.0 0.0 0.00 0.00 0.00 92 1022.9
20260902060012 20 0.0 0.0 0.00 0.00 0.00 99 1023.5
20260902054512 16 0.0 0.0 0.00 0.00 0.00 99 1025.8
20260902053012 13 0.0 0.0 0.00 0.00 0.00 99 1026.9
20260902051512 12 0.0 0.0 0.00 0.00 0.00 99 1029.4
20260902050012 10 0.0 0.0 0.00 0.00 0.00 99 1029.5
20260902044513 10 0.0 0.0 0.00 0.00 0.00 99 1029.6
20260902043012 10 0.0 0.0 0.00 0.00 0.00 99 1029.3
20260902041512 10 0.0 0.0 0.00 0.00 0.00 99 1028.8
20260902040012 10 0.0 0.0 0.00 0.00 0.00 99 1028.4
20260902034512 10 0.0 0.0 0.00 0.00 0.00 99 1028.3
20260902033012 10 0.0 0.0 0.00 0.00 0.00 99 1028.3
20260902031512 11 0.0 0.0 0.00 0.00 0.00 99 1028.0
20260902030011 11 0.0 0.0 0.00 0.00 0.00 99 1028.0
20260902024512 11 0.0 0.0 0.00 0.00 0.00 99 1027.8
20260902023012 11 0.0 0.0 0.00 0.00 0.00 99 1027.4
20260902021512 11 0.0 0.0 0.00 0.00 0.00 99 1027.6
20260902020012 11 0.0 0.0 0.00 0.00 0.00 99 1027.4
20260902014512 11 0.0 0.0 0.00 0.00 0.00 99 1027.2
20260902013011 11 0.0 0.0 0.00 0.00 0.00 99 1027.1
20260902011512 11 0.0 0.0 0.00 0.00 0.00 99 1027.1
20260902010012 12 0.0 0.0 0.00 0.00 0.00 99 1026.6
20260902004512 12 0.0 0.0 0.00 0.00 0.00 99 1026.4
20260902003012 12 0.0 0.0 0.00 0.00 0.00 99 1026.8
20260902001511 12 0.0 0.0 0.00 0.00 0.00 99 1026.9
20260902000012 12 0.0 0.0 0.00 0.00 0.00 99 1026.9
20260901234512 12 0.0 0.0 0.00 0.00 0.00 99 1026.8
20260901233012 12 0.0 0.0 0.00 0.00 0.00 99 1027.1
20260901231512 12 0.0 0.0 0.00 0.00 0.00 99 1026.8
20260901230012 12 0.0 0.0 0.00 0.00 0.00 99 1026.8
20260901224512 12 0.0 0.0 0.00 0.00 0.00 99 1026.5
20260901223012 13 0.0 0.0 0.00 0.00 0.00 99 1026.4
20260901221512 13 0.0 0.0 0.00 0.00 0.00 99 1026.7
20260901220012 13 0.0 0.0 0.00 0.00 0.00 99 1026.1
20260901214512 13 0.0 0.0 0.00 0.00 0.00 99 1025.5
20260901213011 13 0.0 0.0 0.00 0.00 0.00 99 1025.1
20260901211513 13 0.0 0.0 0.00 0.00 0.00 99 1025.4
20260901210014 13 0.0 0.0 0.00 0.00 0.00 99 1025.2
20260901204511 14 0.0 0.0 0.00 0.00 0.00 99 1024.8
20260901203014 15 0.0 0.0 0.00 0.00 0.00 99 1024.5
20260901201512 15 0.0 0.0 0.00 0.00 0.00 99 1024.1
20260901200012 15 0.0 0.0 0.00 0.00 0.00 99 1023.8
20260901194512 15 0.0 0.0 0.00 0.00 0.00 99 1023.9
20260901193011 16 0.0 0.0 0.00 0.00 0.00 99 1023.8
20260901191511 16 0.0 0.0 0.00 0.00 0.00 99 1023.5
20260901190012 16 0.0 0.0 0.00 0.00 0.00 99 1023.1
20260901184512 17 0.0 0.0 0.00 0.00 0.00 99 1022.9
20260901183011 17 0.0 0.0 0.00 0.00 0.00 99 1022.8
20260901181511 18 0.0 0.0 0.00 0.00 0.00 99 1022.4
20260901180012 19 0.0 0.0 0.00 0.00 0.00 99 1022.4
20260901174512 21 0.0 0.0 0.00 0.00 0.00 99 1022.1
20260901173012 22 0.0 0.0 0.00 0.00 0.00 85 1022.1
20260901171511 24 0.0 0.0 0.00 0.00 0.00 65 1022.1
20260901170012 24 0.0 0.0 0.00 0.00 0.00 61 1022.1
20260901164512 24 0.0 0.0 0.00 0.00 0.00 55 1022.0
20260901163012 25 0.0 0.0 0.00 0.00 0.00 49 1022.0
20260901161512 26 0.0 0.0 0.00 0.00 0.00 47 1021.9
20260901160013 26 0.0 0.0 0.00 0.00 0.00 45 1021.8
20260901154512 26 0.0 0.0 0.00 0.00 0.00 44 1021.9
20260901153012 25 0.0 0.0 0.00 0.00 0.00 48 1022.0
20260901151513 26 0.0 0.0 0.00 0.00 0.00 46 1021.8
20260901150013 25 0.0 0.0 0.00 0.00 0.00 49 1021.9
20260901144511 26 0.0 0.0 0.00 0.00 0.00 52 1021.9
20260901143011 25 0.0 0.0 0.00 0.00 0.00 53 1022.0
20260901141512 26 0.0 0.0 0.00 0.00 0.00 52 1022.0
20260901140012 25 0.0 0.0 0.00 0.00 0.00 54 1022.3
20260901134512 25 0.0 0.0 0.00 0.00 0.00 57 1022.4
20260901133012 24 0.0 0.0 0.00 0.00 0.00 58 1022.4
20260901131512 23 0.0 0.0 0.00 0.00 0.00 63 1022.5
20260901130012 23 0.0 0.0 0.00 0.00 0.00 71 1022.6
20260901124511 23 0.0 0.0 0.00 0.00 0.00 79 1022.8
20260901123012 23 0.0 0.0 0.00 0.00 0.00 89 1022.9
20260901121511 21 0.0 0.0 0.00 0.00 0.00 99 1023.0
20260901120012 21 0.0 0.0 0.00 0.00 0.00 99 1023.2
20260901114512 21 0.0 0.0 0.00 0.00 0.00 99 1023.2
20260901113012 21 0.0 0.0 0.00 0.00 0.00 99 1023.1
20260901111512 21 0.0 0.0 0.00 0.00 0.00 99 1023.3
20260901110012 21 0.0 0.0 0.00 0.00 0.00 99 1023.5
20260901104512 20 0.0 0.0 0.00 0.00 0.00 99 1023.5
20260901103012 20 0.0 0.0 0.00 0.00 0.00 99 1023.6
20260901101512 21 0.0 0.0 0.00 0.00 0.00 99 1023.6
20260901100012 24 0.0 0.0 0.00 0.00 0.00 86 1023.5
20260901094512 21 0.0 0.0 0.00 0.00 0.00 99 1023.6